DW2755 Weather Reports


time (UTC)temp
F
wind
direction
speed
knots
gust
knots
rain 1hr
in
rain 24hr
in
rain mn
in
humidity
%
barometer
mb
20260906220028 88 360 1.7 7.0 0.00 0.00 0.00 37 1001.8
20260906214521 88 57 3.5 7.0 0.00 0.00 0.00 37 1002.0
20260906213020 88 23 2.6 6.1 0.00 0.00 0.00 36 1002.1
20260906211518 88 63 0.0 2.6 0.00 0.00 0.00 36 1002.5
20260906210015 87 33 1.7 3.5 0.00 0.00 0.00 36 1002.8
20260906204515 88 22 4.3 7.0 0.00 0.00 0.00 35 1002.8
20260906203014 88 26 2.6 7.8 0.00 0.00 0.00 38 1002.9
20260906201513 88 55 2.6 6.1 0.00 0.00 0.00 38 1003.0
20260906200009 88 113 0.0 5.2 0.00 0.00 0.00 41 1003.3
20260906194508 86 347 3.5 7.8 0.00 0.00 0.00 41 1003.3
20260906193005 86 14 3.5 6.1 0.00 0.00 0.00 40 1003.5
20260906191503 84 227 1.7 5.2 0.00 0.00 0.00 42 1003.7
20260906190100 84 31 3.5 5.2 0.00 0.00 0.00 45 1003.8
20260906184557 83 212 0.0 5.2 0.00 0.00 0.00 47 1004.3
20260906183112 82 360 3.5 6.1 0.00 0.00 0.00 49 1004.5
20260906181555 81 50 1.7 6.1 0.00 0.00 0.00 49 1004.7
20260906180111 80 67 3.5 6.1 0.00 0.00 0.00 51 1004.8
20260906174546 79 67 0.0 2.6 0.00 0.00 0.00 55 1005.4
20260906173043 78 14 1.7 4.3 0.00 0.00 0.00 57 1005.6
20260906171541 77 36 2.6 4.3 0.00 0.00 0.00 58 1005.8
20260906170041 78 107 1.7 4.3 0.00 0.00 0.00 58 1006.1
20260906164536 77 36 1.7 6.1 0.00 0.00 0.00 61 1006.2
20260906163035 74 111 1.7 4.3 0.00 0.00 0.00 63 1006.2
20260906161531 73 102 2.6 6.1 0.00 0.00 0.00 66 1006.1
20260906160027 72 105 1.7 5.2 0.00 0.00 0.00 68 1006.1
20260906154523 72 79 1.7 5.2 0.00 0.00 0.00 68 1006.4
20260906153019 70 63 2.6 5.2 0.00 0.00 0.00 71 1006.3
20260906151526 68 29 4.3 7.0 0.00 0.00 0.00 73 1006.6
20260906150016 67 344 2.6 5.2 0.00 0.00 0.00 75 1006.7
20260906144514 67 30 2.6 6.1 0.00 0.00 0.00 75 1006.7
20260906143012 66 62 1.7 7.0 0.00 0.00 0.00 77 1006.6
20260906141508 66 323 1.7 4.3 0.00 0.00 0.00 77 1006.6
20260906140007 64 18 1.7 6.1 0.00 0.00 0.00 78 1006.6
20260906134501 64 306 1.7 4.3 0.00 0.00 0.00 78 1006.7
20260906133103 63 327 0.9 2.6 0.00 0.00 0.00 77 1006.7
20260906131557 63 327 1.7 4.3 0.00 0.00 0.00 77 1006.7
20260906130105 62 336 0.0 3.5 0.00 0.00 0.00 76 1006.6
20260906124551 62 332 0.0 2.6 0.00 0.00 0.00 76 1006.3
20260906123048 62 329 0.0 0.9 0.00 0.00 0.00 75 1006.3
20260906121556 62 338 1.7 3.5 0.00 0.00 0.00 75 1006.2
20260906120047 62 326 0.0 2.6 0.00 0.00 0.00 74 1006.2
20260906114556 62 350 0.9 1.7 0.00 0.00 0.00 74 1006.2
20260906113054 63 326 0.9 2.6 0.00 0.00 0.00 74 1006.1
20260906111544 63 32 0.0 0.9 0.00 0.00 0.00 75 1005.9
20260906110044 63 32 0.0 0.9 0.00 0.00 0.00 76 1006.0
20260906104540 64 32 0.0 0.9 0.00 0.00 0.00 75 1005.9
20260906103037 64 32 0.0 1.7 0.00 0.00 0.00 74 1006.1
20260906101535 65 32 0.0 3.5 0.00 0.00 0.00 72 1006.0
20260906100034 65 21 1.7 3.5 0.00 0.00 0.00 70 1006.0
20260906094534 65 28 0.9 2.6 0.00 0.00 0.00 68 1006.0
20260906093030 66 24 0.9 4.3 0.00 0.00 0.00 67 1005.9
20260906091533 66 17 1.7 4.3 0.00 0.00 0.00 67 1005.7
20260906090028 66 41 2.6 5.2 0.00 0.00 0.00 66 1005.2
20260906084523 67 349 3.5 7.0 0.00 0.00 0.00 65 1005.1
20260906083021 68 338 2.6 7.0 0.00 0.00 0.00 63 1005.2
20260906081527 68 28 2.6 7.0 0.00 0.00 0.00 62 1005.4
20260906080014 69 34 3.5 7.8 0.00 0.00 0.00 59 1005.4
20260906074519 69 29 2.6 6.1 0.00 0.00 0.00 54 1005.3
20260906073011 70 14 3.5 6.1 0.00 0.00 0.00 52 1005.4
20260906071511 71 355 1.7 4.3 0.00 0.00 0.00 50 1005.3
20260906070009 71 360 1.7 4.3 0.00 0.00 0.00 48 1005.3
20260906064509 71 259 0.0 4.3 0.00 0.00 0.00 48 1005.2
20260906063007 71 347 0.9 3.5 0.00 0.00 0.00 49 1005.1
20260906061505 71 338 2.6 4.3 0.00 0.00 0.00 51 1005.1
20260906060010 70 221 1.7 4.3 0.00 0.00 0.00 52 1005.5
20260906054601 71 142 0.0 0.0 0.00 0.00 0.00 52 1005.3
20260906053101 71 290 0.0 0.0 0.00 0.00 0.00 53 1005.7
20260906051603 72 327 0.0 0.0 0.00 0.00 0.00 48 1005.5
20260906050058 72 328 0.0 1.7 0.00 0.00 0.00 48 1005.2
20260906044556 71 244 1.7 6.1 0.00 0.00 0.00 50 1005.4
20260906043055 73 115 0.0 6.1 0.00 0.00 0.00 46 1005.0
20260906041555 74 30 0.9 2.6 0.00 0.00 0.00 46 1004.6
20260906040054 76 76 0.0 2.6 0.00 0.00 0.00 42 1004.3
20260906034554 77 18 0.9 2.6 0.00 0.00 0.00 38 1004.1
20260906033054 77 26 2.6 5.2 0.00 0.00 0.00 38 1004.1
20260906031600 78 57 1.7 5.2 0.00 0.00 0.00 37 1004.0
20260906030053 78 340 1.7 6.1 0.00 0.00 0.00 37 1003.6
20260906024552 79 55 2.6 7.0 0.00 0.00 0.00 37 1003.5
20260906023052 79 355 1.7 5.2 0.00 0.00 0.00 36 1003.4
20260906021551 79 321 0.9 3.5 0.00 0.00 0.00 36 1003.3
20260906020058 81 360 1.7 3.5 0.00 0.00 0.00 34 1003.2
20260906014550 82 360 0.9 3.5 0.00 0.00 0.00 32 1002.8
20260906013050 84 301 0.9 4.3 0.00 0.00 0.00 31 1002.6
20260906011550 85 325 1.7 5.2 0.00 0.00 0.00 30 1002.6
20260906010049 86 292 0.9 7.0 0.00 0.00 0.00 29 1002.6
20260906004548 87 320 2.6 6.1 0.00 0.00 0.00 27 1002.5
20260906003048 88 303 1.7 7.8 0.00 0.00 0.00 27 1002.6
20260906001547 89 276 0.9 4.3 0.00 0.00 0.00 27 1002.5
20260906000047 90 284 0.9 2.6 0.00 0.00 0.00 27 1002.3
20260905234546 91 321 0.9 3.5 0.00 0.00 0.00 25 1002.3
20260905233049 92 11 0.9 3.5 0.00 0.00 0.00 24 1002.2
20260905231546 92 80 0.9 1.7 0.00 0.00 0.00 23 1002.2
20260905230050 92 134 0.0 3.5 0.00 0.00 0.00 23 1002.1
20260905224600 93 46 1.7 5.2 0.00 0.00 0.00 23 1002.0
20260905223044 93 60 0.9 6.1 0.00 0.00 0.00 23 1002.0
20260905221556 94 25 2.6 4.3 0.00 0.00 0.00 22 1002.1